STARLINK-35932 (66526 NORAD) Tracking and Keplerian Element Data

This shows tracking and keplerian element data for the satellite.

Feedback or suggestion? Click here.




ElementValue
Catalog66526
NameSTARLINK-35932
Epoch Orbit609
Epoch Day354.25003472
Epoch Year2025
RAAN10.4543
Inclination43.0002
Eccentricity0.0001219
Argument of Perigee268.7512
Mean Anonmoly296.2164
Mean Motion15.40693029
Decay Rate6.395E-05
L11 66526U 25265L 25354.25003472 .00006395 00000+0 16027-3 0 9998
L22 66526 43.0002 10.4543 0001219 268.7512 296.2164 15.40693029 6091



Live tracking and technical data element details for STARLINK-35932 (NORAD 66526). STARLINK-35932 can be tracked NOW for your location showing map with azimuth and elevation plus other details from your city location.







IsCatalogInMostPopularTable: catalog: 66526, numindb: 18
Update: records affected: 1



GetName: 66526 STARLINK-35932

Hit Count: updated at: Mon, 20 Apr 2026 08:50:50 GMT